Costa Luminosa — ICGU — position and weather

sailwx.info

Track history (hours):
 
Tides and Currents Weather Stations Pressure Air Temp Water Temp Dewpoint Dewpoint Depression Visibility Wind Speed Wind Dir Waves Ship Positions

Costa Luminosa

Last reported at 2018-May-22 16:42 UTC. Time now 2018-May-24 12:10 UTC.
Position N 37°19' E 023°37'.

Length 294 m; draft 8.1 m.

Type: Passenger vessel. MMSI: 247257900.

Date/timePositionNaut miles runAvg speedWind from/ knotsBaromVisibWave heightAir tempDewpointWater temp
2018-May-22 16:42N 37°19' E 023°37'617.9
2018-May-22 16:22N 37°25' E 023°39'617.9
2018-May-22 16:00N 37°31' E 023°41'917.5
2018-May-22 15:30N 37°40' E 023°42'917.3
2018-May-22 15:01N 37°47' E 023°38'714.2
2018-May-22 14:30N 37°54' E 023°36'2 0.3
2018-May-22 05:33N 37°56' E 023°38'0 0.4
2018-May-22 05:29N 37°56' E 023°38'0 0.0
2018-May-22 04:59N 37°56' E 023°38'0 0.0
2018-May-22 04:29N 37°56' E 023°38'0 0.0
2018-May-22 04:00N 37°56' E 023°38'0 0.0
2018-May-22 03:30N 37°56' E 023°38'2 3.6
2018-May-22 03:00N 37°55' E 023°37'714.6
2018-May-22 02:30N 37°49' E 023°41'917.9
2018-May-22 02:00N 37°41' E 023°46'917.9
2018-May-22 01:30N 37°32' E 023°44'918.0
2018-May-22 01:00N 37°23' E 023°41'3118.1
2018-May-21 23:17N 36°53' E 023°30'1218.2
2018-May-21 22:37N 36°42' E 023°24'59912.9
2018-May-20 00:03N 43°43' E 014°06'118.5
2018-May-20 00:00N 43°43' E 014°05'4318.4
2018-May-19 21:41N 44°09' E 013°18'318.5
2018-May-19 21:30N 44°11' E 013°14'1018.1
2018-May-19 20:58N 44°20' E 013°08'918.2
2018-May-19 20:30N 44°28' E 013°04'917.9
2018-May-19 20:00N 44°36' E 013°01'918.1
2018-May-19 19:30N 44°45' E 012°57'918.3
2018-May-19 19:00N 44°53' E 012°52'918.3
2018-May-19 18:30N 45°01' E 012°46'917.5
2018-May-19 18:00N 45°08' E 012°38'816.6
2018-May-19 17:30N 45°14' E 012°30'917.2
2018-May-19 17:00N 45°23' E 012°29'510.1
2018-May-19 16:30N 45°26' E 012°23'2 4.5
2018-May-19 16:01N 45°26' E 012°20'1 2.6
2018-May-19 15:30N 45°26' E 012°19'0 0.0
2018-May-19 14:59N 45°26' E 012°19'0 0.0
2018-May-19 14:29N 45°26' E 012°19'0 0.0
2018-May-19 13:59N 45°26' E 012°19'0 0.0
2018-May-19 13:29N 45°26' E 012°19'0 0.0
2018-May-19 12:59N 45°26' E 012°19'0 0.0
2018-May-19 12:29N 45°26' E 012°19'0 0.0
2018-May-19 11:59N 45°26' E 012°19'0 0.0
2018-May-19 11:29N 45°26' E 012°19'0 0.0
2018-May-19 10:59N 45°26' E 012°19'0 0.0
2018-May-19 10:29N 45°26' E 012°19'0 0.0
2018-May-19 09:59N 45°26' E 012°19'0 0.0
2018-May-19 09:29N 45°26' E 012°19'0 0.0
2018-May-19 08:59N 45°26' E 012°19'0 0.0
2018-May-19 08:26N 45°26' E 012°19'0 0.0
2018-May-19 07:56N 45°26' E 012°19'0 0.0
2018-May-19 07:29N 45°26' E 012°19'0 0.0
2018-May-19 06:59N 45°26' E 012°19'2 3.5
2018-May-19 06:30N 45°26' E 012°21'3 5.4
2018-May-19 06:00N 45°26' E 012°25'611.0
2018-May-19 05:30N 45°23' E 012°31'815.2
2018-May-19 05:00N 45°15' E 012°35'815.9
2018-May-19 04:30N 45°11' E 012°43'815.3
2018-May-19 04:00N 45°05' E 012°50'815.5
2018-May-19 03:30N 44°58' E 012°55'815.4
2018-May-19 03:00N 44°51' E 012°59'815.8
2018-May-19 02:30N 44°43' E 013°03'816.2
2018-May-19 02:00N 44°36' E 013°07'816.1
2018-May-19 01:30N 44°28' E 013°10'816.3
2018-May-19 01:00N 44°20' E 013°14'916.0
2018-May-19 00:25N 44°14' E 013°23'  
2018-May-15 18:08N 36°52' E 023°29'1917.9
2018-May-15 17:06N 37°10' E 023°35'218.4
2018-May-15 17:00N 37°12' E 023°36'918.3
2018-May-15 16:30N 37°21' E 023°38'917.8
2018-May-15 16:00N 37°30' E 023°40'917.5
2018-May-15 15:30N 37°38' E 023°42'917.5
2018-May-15 15:00N 37°46' E 023°38'917.0
2018-May-15 14:30N 37°55' E 023°36'2 4.7
2018-May-15 14:00N 37°56' E 023°38'0 0.0
2018-May-15 13:30N 37°56' E 023°38'0 0.0
2018-May-15 13:00N 37°56' E 023°38'0 0.0
2018-May-15 12:30N 37°56' E 023°38'0 0.0
2018-May-15 12:00N 37°56' E 023°38'0 0.0
2018-May-15 11:30N 37°56' E 023°38'0 0.0
2018-May-15 11:00N 37°56' E 023°38'0 0.0
2018-May-15 10:30N 37°56' E 023°38'0 0.0
2018-May-15 10:00N 37°56' E 023°38'0 0.0
2018-May-15 09:30N 37°56' E 023°38'0 0.0
2018-May-15 09:00N 37°56' E 023°38'0 0.0
2018-May-15 08:30N 37°56' E 023°38'0 0.0
2018-May-15 08:00N 37°56' E 023°38'0 0.0
2018-May-15 07:30N 37°56' E 023°38'0 0.0
2018-May-15 07:00N 37°56' E 023°38'0 0.0
2018-May-15 06:30N 37°56' E 023°38'0 0.0
2018-May-15 06:00N 37°56' E 023°38'0 0.0
2018-May-15 05:30N 37°56' E 023°38'0 0.0
2018-May-15 05:00N 37°56' E 023°38'0 0.0
2018-May-15 04:30N 37°56' E 023°38'0 0.0
2018-May-15 04:00N 37°56' E 023°38'0 0.0
2018-May-15 03:30N 37°56' E 023°38'1 2.8
2018-May-15 03:00N 37°56' E 023°36'612.3
2018-May-15 02:31N 37°50' E 023°40'816.3
2018-May-15 02:01N 37°43' E 023°44'816.3
2018-May-15 01:30N 37°35' E 023°44'816.2
2018-May-15 01:00N 37°27' E 023°42'816.3
2018-May-15 00:31N 37°19' E 023°39'918.3
2018-May-15 00:01N 37°10' E 023°36'2618.2
2018-May-14 22:34N 36°45' E 023°26'518.2
2018-May-14 22:17N 36°40' E 023°23'618.1
2018-May-14 21:58N 36°35' E 023°20'60013.1
2018-May-13 00:11N 43°41' E 014°08'318.9
2018-May-13 00:00N 43°44' E 014°05'3218.8
2018-May-12 22:18N 44°03' E 013°30'618.6
2018-May-12 21:58N 44°07' E 013°23'918.4
2018-May-12 21:30N 44°12' E 013°14'918.4
2018-May-12 21:00N 44°21' E 013°09'918.1
2018-May-12 20:30N 44°29' E 013°04'1017.9
2018-May-12 19:56N 44°39' E 013°00'817.8
2018-May-12 19:30N 44°46' E 012°57'918.1
2018-May-12 19:00N 44°54' E 012°51'917.8
2018-May-12 18:30N 45°02' E 012°45'817.0
2018-May-12 18:00N 45°09' E 012°37'816.1
2018-May-12 17:30N 45°15' E 012°30'817.0
2018-May-12 17:00N 45°23' E 012°29'  
Track history (hours):
 
Tides and Currents Weather Stations Pressure Air Temp Water Temp Dewpoint Dewpoint Depression Visibility Wind Speed Wind Dir Waves Ship Positions

Costa Luminosa

Last reported at 2018-May-22 16:42 UTC. Time now 2018-May-24 12:10 UTC.
Position N 37°19' E 023°37'.

Length 294 m; draft 8.1 m.

Type: Passenger vessel. MMSI: 247257900.

Date/timePositionNaut miles runAvg speedWind from/ knotsBaromVisibWave heightAir tempDewpointWater temp
2018-May-22 16:42N 37°19' E 023°37'617.9
2018-May-22 16:22N 37°25' E 023°39'617.9
2018-May-22 16:00N 37°31' E 023°41'917.5
2018-May-22 15:30N 37°40' E 023°42'917.3
2018-May-22 15:01N 37°47' E 023°38'714.2
2018-May-22 14:30N 37°54' E 023°36'2 0.3
2018-May-22 05:33N 37°56' E 023°38'0 0.4
2018-May-22 05:29N 37°56' E 023°38'0 0.0
2018-May-22 04:59N 37°56' E 023°38'0 0.0
2018-May-22 04:29N 37°56' E 023°38'0 0.0
2018-May-22 04:00N 37°56' E 023°38'0 0.0
2018-May-22 03:30N 37°56' E 023°38'2 3.6
2018-May-22 03:00N 37°55' E 023°37'714.6
2018-May-22 02:30N 37°49' E 023°41'917.9
2018-May-22 02:00N 37°41' E 023°46'917.9
2018-May-22 01:30N 37°32' E 023°44'918.0
2018-May-22 01:00N 37°23' E 023°41'3118.1
2018-May-21 23:17N 36°53' E 023°30'1218.2
2018-May-21 22:37N 36°42' E 023°24'59912.9
2018-May-20 00:03N 43°43' E 014°06'118.5
2018-May-20 00:00N 43°43' E 014°05'4318.4
2018-May-19 21:41N 44°09' E 013°18'318.5
2018-May-19 21:30N 44°11' E 013°14'1018.1
2018-May-19 20:58N 44°20' E 013°08'918.2
2018-May-19 20:30N 44°28' E 013°04'917.9
2018-May-19 20:00N 44°36' E 013°01'918.1
2018-May-19 19:30N 44°45' E 012°57'918.3
2018-May-19 19:00N 44°53' E 012°52'918.3
2018-May-19 18:30N 45°01' E 012°46'917.5
2018-May-19 18:00N 45°08' E 012°38'816.6
2018-May-19 17:30N 45°14' E 012°30'917.2
2018-May-19 17:00N 45°23' E 012°29'510.1
2018-May-19 16:30N 45°26' E 012°23'2 4.5
2018-May-19 16:01N 45°26' E 012°20'1 2.6
2018-May-19 15:30N 45°26' E 012°19'0 0.0
2018-May-19 14:59N 45°26' E 012°19'0 0.0
2018-May-19 14:29N 45°26' E 012°19'0 0.0
2018-May-19 13:59N 45°26' E 012°19'0 0.0
2018-May-19 13:29N 45°26' E 012°19'0 0.0
2018-May-19 12:59N 45°26' E 012°19'0 0.0
2018-May-19 12:29N 45°26' E 012°19'0 0.0
2018-May-19 11:59N 45°26' E 012°19'0 0.0
2018-May-19 11:29N 45°26' E 012°19'0 0.0
2018-May-19 10:59N 45°26' E 012°19'0 0.0
2018-May-19 10:29N 45°26' E 012°19'0 0.0
2018-May-19 09:59N 45°26' E 012°19'0 0.0
2018-May-19 09:29N 45°26' E 012°19'0 0.0
2018-May-19 08:59N 45°26' E 012°19'0 0.0
2018-May-19 08:26N 45°26' E 012°19'0 0.0
2018-May-19 07:56N 45°26' E 012°19'0 0.0
2018-May-19 07:29N 45°26' E 012°19'0 0.0
2018-May-19 06:59N 45°26' E 012°19'2 3.5
2018-May-19 06:30N 45°26' E 012°21'3 5.4
2018-May-19 06:00N 45°26' E 012°25'611.0
2018-May-19 05:30N 45°23' E 012°31'815.2
2018-May-19 05:00N 45°15' E 012°35'815.9
2018-May-19 04:30N 45°11' E 012°43'815.3
2018-May-19 04:00N 45°05' E 012°50'815.5
2018-May-19 03:30N 44°58' E 012°55'815.4
2018-May-19 03:00N 44°51' E 012°59'815.8
2018-May-19 02:30N 44°43' E 013°03'816.2
2018-May-19 02:00N 44°36' E 013°07'816.1
2018-May-19 01:30N 44°28' E 013°10'816.3
2018-May-19 01:00N 44°20' E 013°14'916.0
2018-May-19 00:25N 44°14' E 013°23'  
2018-May-15 18:08N 36°52' E 023°29'1917.9
2018-May-15 17:06N 37°10' E 023°35'218.4
2018-May-15 17:00N 37°12' E 023°36'918.3
2018-May-15 16:30N 37°21' E 023°38'917.8
2018-May-15 16:00N 37°30' E 023°40'917.5
2018-May-15 15:30N 37°38' E 023°42'917.5
2018-May-15 15:00N 37°46' E 023°38'917.0
2018-May-15 14:30N 37°55' E 023°36'2 4.7
2018-May-15 14:00N 37°56' E 023°38'0 0.0
2018-May-15 13:30N 37°56' E 023°38'0 0.0
2018-May-15 13:00N 37°56' E 023°38'0 0.0
2018-May-15 12:30N 37°56' E 023°38'0 0.0
2018-May-15 12:00N 37°56' E 023°38'0 0.0
2018-May-15 11:30N 37°56' E 023°38'0 0.0
2018-May-15 11:00N 37°56' E 023°38'0 0.0
2018-May-15 10:30N 37°56' E 023°38'0 0.0
2018-May-15 10:00N 37°56' E 023°38'0 0.0
2018-May-15 09:30N 37°56' E 023°38'0 0.0
2018-May-15 09:00N 37°56' E 023°38'0 0.0
2018-May-15 08:30N 37°56' E 023°38'0 0.0
2018-May-15 08:00N 37°56' E 023°38'0 0.0
2018-May-15 07:30N 37°56' E 023°38'0 0.0
2018-May-15 07:00N 37°56' E 023°38'0 0.0
2018-May-15 06:30N 37°56' E 023°38'0 0.0
2018-May-15 06:00N 37°56' E 023°38'0 0.0
2018-May-15 05:30N 37°56' E 023°38'0 0.0
2018-May-15 05:00N 37°56' E 023°38'0 0.0
2018-May-15 04:30N 37°56' E 023°38'0 0.0
2018-May-15 04:00N 37°56' E 023°38'0 0.0
2018-May-15 03:30N 37°56' E 023°38'1 2.8
2018-May-15 03:00N 37°56' E 023°36'612.3
2018-May-15 02:31N 37°50' E 023°40'816.3
2018-May-15 02:01N 37°43' E 023°44'816.3
2018-May-15 01:30N 37°35' E 023°44'816.2
2018-May-15 01:00N 37°27' E 023°42'816.3
2018-May-15 00:31N 37°19' E 023°39'918.3
2018-May-15 00:01N 37°10' E 023°36'2618.2
2018-May-14 22:34N 36°45' E 023°26'518.2
2018-May-14 22:17N 36°40' E 023°23'618.1
2018-May-14 21:58N 36°35' E 023°20'60013.1
2018-May-13 00:11N 43°41' E 014°08'318.9
2018-May-13 00:00N 43°44' E 014°05'3218.8
2018-May-12 22:18N 44°03' E 013°30'618.6
2018-May-12 21:58N 44°07' E 013°23'918.4
2018-May-12 21:30N 44°12' E 013°14'918.4
2018-May-12 21:00N 44°21' E 013°09'918.1
2018-May-12 20:30N 44°29' E 013°04'1017.9
2018-May-12 19:56N 44°39' E 013°00'817.8
2018-May-12 19:30N 44°46' E 012°57'918.1
2018-May-12 19:00N 44°54' E 012°51'917.8
2018-May-12 18:30N 45°02' E 012°45'817.0
2018-May-12 18:00N 45°09' E 012°37'816.1
2018-May-12 17:30N 45°15' E 012°30'817.0
2018-May-12 17:00N 45°23' E 012°29'  

Dump ship's entire track history